STARLINK-37156, 68263

Orbit data source: Space-Track

STARLINK-37156, 68263 is a payload satellite owned by SpaceX/Seattle (US) in LEO that was launched on Thu, 19 Mar 2026 UTC via an FALCON 9 launch vehicle from the Air Force Eastern Test Range (AFETR). Payload-class satellites include a variety of spacecraft equipped with specific instruments for various scientific and technological missions. These include communications satellites like Starlink; space stations such as the ISS; scientific satellites like the Hubble; Earth observation satellites from companies like Planet Labs, Umbra, and HawkEye 360; GPS; miniature CubeSats for education and research; and military/defense satellites.

Loading next visibility...
Identifier
68263, 2026-055B
Orbit
LEO
Country
Flag of USUS
Related business
Manufacturer
SpaceX/Seattle
Mission
Operational spacecraft
Bus & Motor
STARLINK V2MO, Unknown motor
Mass
575 kg wet, ~530 kg dry
Launch date (UTC)
2026-03-19 (3 months ago)
Launch vehicle
FALCON 9
Launch site
Air Force Eastern Test Range (AFETR)
Object type
Payload
Rocket body
Debris
Shape & HBR
Unknown shape, 17.7 m
Radar Cross Section
Large (>1 m²)

Expand to show TLE details & history
Last TLE update: 12 hours ago

TLE from 12 hours ago
0 STARLINK-37156
1 68263U 26055B   26171.36535017  .00013738  00000-0  41686-3 0  9990
2 68263  53.1574 202.1732 0001056  82.7212 277.3910 15.34409114 15651
Epoch: 2026-06-20T08:46Z
TLE epoch observation values (Epoch: 2026-06-20T08:46:06.254Z)
Latitude
-0.00008°
Longitude
162.06607°
Altitude
463.484 km
Speed
7.636 km/s
True Right ascension
13h 28m 41s
True Declination
0° 00' 00"
Sunlit
Object was in partial shadow at epoch
Visualization orbit readout
Latitude
Unknown
Longitude
Unknown
Altitude
Unknown
Speed
Unknown
Apparent Right ascension
Unknown
Apparent Declination
Unknown
Sunlit
N/A
Visualization observer readout
Local Sidereal Time
07:12:29
Azimuth
Unknown
Elevation
Unknown
Doppler factor
Unknown
Orbital elements
Apogee altitude
463.656 km
Perigee altitude
462.211 km
Semi-major axis
6,841.07 km
Eccentricity
0.00011
Inclination
53.1574°
RAAN
202.1732°
Arg. of periapsis
82.7212°
True anomaly
277.379°
Mean anomaly
277.391°
Eccentric anomaly
277.385°
Mean motion
3.83581 °/min
Orbital period
93.85 mins
BSTAR
0.00041686
Loading maneuver chart data...
Computing Atmospheric mass density...
Loading historical data...
Loading historical data...
Loading historical data...
Loading historical data...
Loading historical data...
Loading historical data...
Loading historical data...

Documentation

Showing up to 5 results
|